TEVEL2-5

Last updated on Tue Aug 25 2026 00:03:14 GMT+0000 (Coordinated Universal Time)

1 63214U 25052E 26236.56058799 .00017212 00000+0 48302-3 0 9990 2 63214 97.3801 133.0681 0001772 159.8940 200.2374 15.36626617 80606
UTC large
Height (km)
Speed (km/s)
/
Latitude / Longitude
Inclination (degrees)
Orbital Period (minutes)
Azimuth
Elevation
Range (km)
Doppler Factor

Next 0 passes for location: London (51.5072 / 0.1276)

No passes found over London.
TEVEL2-5